Lapse_Rate
8.5 8.7 9.0 8.7 8.8 9.5 9.0 8.3 8.3 7.7 8.4 8.5 8.4 8.7 9.4 9.8 9.7 9.6 9.6 9.7 9.6 9.2 9.4 9.3 8.8 8.7 9.0 8.8 8.6 8.9 8.8 8.6 8.2 8.0 8.2 8.2 8.2 8.3 8.3 8.1 8.1 7.9 7.8 7.8
9.5 9.4 9.3 9.1 9.1 9.3 9.6 9.2 8.9 8.6 8.0 8.5 9.0 9.2 9.3 9.6 9.6 9.5 9.3 9.4 9.3 9.8 9.4 9.1 9.0 8.9 8.9 8.8 8.7 8.6 9.0 8.9 8.4 8.0 8.2 8.3 8.2 8.2 8.1 8.1 8.1 8.0 7.9 7.8
8.9 9.2 9.3 8.9 8.5 9.1 9.4 9.7 9.5 8.6 8.0 8.8 8.7 8.9 9.0 9.5 9.8 9.8 9.0 9.3 9.5 9.4 9.3 9.2 9.1 9.0 8.8 8.8 9.1 8.6 8.7 8.9 8.7 8.3 8.3 8.4 8.3 8.2 8.2 8.2 8.0 7.9 7.7 7.7
9.0 9.0 8.2 7.5 8.4 9.0 9.4 9.5 9.7 9.6 9.1 8.8 8.6 8.8 8.8 9.1 9.3 9.6 9.4 9.3 9.1 9.5 9.6 9.3 9.2 9.2 9.1 8.8 8.9 9.0 9.0 8.9 9.0 8.6 8.4 8.5 8.3 8.2 8.0 8.0 8.1 7.9 7.7 7.7
9.1 8.9 8.6 8.3 8.3 8.9 9.3 9.3 9.6 9.5 9.4 8.9 9.0 9.2 9.0 8.7 9.1 9.2 8.1 8.6 8.4 9.2 9.9 9.9 9.9 9.4 9.1 8.9 8.9 9.0 9.0 9.1 9.2 9.0 8.7 8.7 8.6 8.2 8.0 8.2 8.1 7.8 7.7 7.7
9.3 8.9 7.5 7.6 8.7 8.9 9.0 9.1 9.3 9.2 9.1 9.2 8.6 8.3 8.1 8.8 8.6 8.9 9.2 8.9 8.6 9.2 9.5 9.6 9.5 9.4 9.4 9.1 9.1 9.0 9.2 9.2 9.2 9.0 8.9 8.9 8.6 8.0 8.3 8.1 7.8 7.8 7.8 7.9
9.4 8.9 8.4 8.7 9.0 9.0 9.1 8.5 8.9 8.9 8.7 8.5 8.7 8.4 8.2 8.4 8.9 8.6 8.6 9.0 9.3 9.5 9.3 9.0 9.7 9.3 8.7 8.9 8.7 9.0 9.2 9.0 8.6 8.6 9.0 8.8 8.5 8.5 8.1 7.5 7.8 7.7 7.6 7.6
9.2 9.4 9.0 9.0 9.0 8.7 8.7 8.5 8.4 8.5 8.8 8.8 8.6 8.6 8.6 8.7 8.6 8.6 8.7 8.5 9.0 9.3 9.7 9.6 9.2 8.9 9.1 9.0 8.8 9.0 8.5 8.2 8.5 8.5 8.8 8.8 8.7 7.8 7.7 7.8 7.8 7.6 7.9 8.0
8.1 8.7 8.9 9.3 8.9 8.4 8.1 8.7 8.0 8.0 7.9 8.4 8.6 8.5 8.4 8.4 8.4 8.8 8.9 8.5 8.5 9.0 9.4 9.8 9.4 8.9 8.9 9.0 8.9 8.9 8.0 8.2 8.4 8.6 8.7 8.6 7.9 7.5 7.7 7.8 8.0 7.9 8.2 8.0
6.9 8.4 7.8 8.0 7.7 8.3 8.1 6.9 7.9 7.9 7.8 8.4 8.4 8.3 8.4 8.0 7.8 7.9 8.7 8.9 8.8 8.6 8.7 9.1 9.4 9.3 9.1 9.0 9.2 9.0 8.1 8.3 8.3 8.8 8.4 7.7 7.6 7.6 7.8 8.0 8.0 8.1 8.1 7.8
7.1 7.6 7.1 6.8 6.9 6.3 6.9 6.9 7.6 8.0 8.6 8.6 8.4 8.1 7.9 7.7 8.0 7.9 8.1 8.6 8.9 9.1 8.9 8.9 9.0 9.2 9.1 9.1 9.1 9.1 8.0 8.0 7.9 8.1 7.8 7.8 7.8 7.8 8.0 8.1 8.0 7.8 7.5 7.1
6.3 6.8 6.3 6.4 6.3 4.9 7.1 7.5 7.5 8.3 8.1 8.2 7.8 7.7 7.7 7.7 7.5 7.7 7.9 7.5 8.5 8.8 9.2 8.8 8.9 8.9 8.8 8.4 8.1 7.6 7.4 7.4 7.8 7.5 7.6 7.7 7.9 8.0 8.1 8.1 7.7 7.2 6.8 6.5
6.3 6.0 5.8 6.1 6.1 6.1 6.8 7.1 7.3 7.4 7.2 7.1 7.4 7.5 7.5 7.4 7.2 7.5 7.5 4.4 8.6 8.9 8.9 9.2 8.1 8.0 7.8 7.3 7.2 7.1 7.2 7.3 7.5 7.6 7.8 8.0 8.0 8.2 8.0 7.6 6.9 6.5 6.5 6.4
6.6 6.3 6.4 6.1 5.6 4.9 5.1 6.1 6.6 7.1 7.1 7.1 7.0 7.5 7.6 7.1 6.9 7.2 6.0 6.1 7.4 7.8 8.1 8.0 7.5 7.2 7.2 7.1 7.3 7.1 7.4 7.9 8.0 8.0 7.9 7.9 7.9 7.8 7.8 7.1 6.5 6.0 6.4 6.0
6.3 6.4 6.1 6.1 5.5 4.9 5.9 6.5 6.8 7.0 7.0 6.8 7.2 7.5 7.4 7.0 7.0 6.8 5.8 6.0 6.9 7.1 7.1 7.2 7.0 7.0 7.2 7.3 7.8 7.3 7.8 7.7 7.5 7.5 7.6 7.4 7.0 7.3 7.3 7.1 6.7 6.5 6.2 5.7
5.8 5.6 5.6 5.2 5.6 5.4 5.7 6.1 6.2 6.8 6.5 6.2 6.2 6.4 6.8 7.1 6.6 6.6 6.1 6.5 6.9 7.0 7.1 7.1 7.1 7.3 7.0 6.9 6.9 6.7 7.2 7.4 7.3 7.1 6.5 6.2 6.2 6.5 6.4 6.2 6.4 5.9 5.4 5.6
5.2 5.2 5.0 5.3 5.5 5.5 5.0 5.4 5.9 6.1 5.3 5.6 6.0 6.3 6.2 6.0 6.3 6.2 6.1 6.3 6.6 6.4 6.5 6.4 6.5 6.6 6.3 6.5 6.7 6.3 6.8 6.3 6.3 6.5 6.3 6.3 6.5 6.0 5.2 5.6 5.5 4.9 5.0 5.5
4.9 5.3 5.4 5.5 5.4 5.6 5.9 5.7 5.4 5.3 5.3 5.2 5.7 6.0 5.8 5.8 6.1 6.0 6.1 6.1 6.2 6.3 5.9 6.0 6.1 5.1 5.9 6.3 6.4 6.2 6.1 6.0 5.8 5.8 5.4 5.9 5.6 5.7 5.5 5.2 5.3 5.1 5.3 5.1
5.2 5.1 5.1 5.1 5.1 5.4 5.3 5.4 5.3 5.3 5.1 4.9 5.2 5.6 5.8 5.3 5.5 5.7 5.9 6.3 6.0 5.9 6.1 6.0 5.7 5.7 5.6 5.8 5.7 6.0 6.4 5.7 5.9 5.7 5.6 5.4 5.3 5.9 5.6 5.2 5.1 5.0 5.3 5.2
5.3 5.2 5.3 5.3 5.1 5.1 5.2 4.8 4.5 4.3 4.8 4.8 4.5 4.7 4.9 5.4 5.1 5.0 5.2 6.1 5.5 5.4 6.0 6.1 5.6 5.5 5.6 5.5 5.4 5.1 5.6 5.4 5.5 5.9 5.7 5.6 6.0 5.9 5.6 5.4 5.4 5.3 5.2 5.4
5.4 5.2 5.4 5.1 5.1 5.2 4.9 4.6 4.4 4.6 4.7 4.7 4.9 5.0 4.8 4.5 5.2 5.1 5.0 5.3 5.3 5.4 5.6 5.5 5.3 5.6 5.2 4.7 4.6 5.8 5.7 5.5 5.8 6.1 6.0 5.9 5.7 5.7 5.2 5.4 5.6 5.6 5.3 5.5
5.5 5.2 5.2 5.1 4.9 4.9 4.9 4.4 4.8 4.8 4.8 4.7 4.8 4.8 5.0 4.8 4.7 4.8 4.9 5.1 5.4 5.6 5.8 5.5 6.1 6.0 5.6 5.6 5.8 5.5 5.5 5.4 5.5 5.5 5.6 5.5 5.4 5.4 5.8 5.5 5.8 5.6 5.1 5.4
5.1 4.9 4.8 4.8 5.0 5.2 5.2 5.4 5.4 5.4 5.4 5.3 5.6 5.4 5.2 5.4 5.4 5.4 5.4 5.3 5.6 5.9 6.1 6.1 6.0 5.8 6.0 5.9 6.0 5.5 5.5 5.4 5.5 5.6 5.8 5.8 5.3 5.6 5.8 5.6 5.3 5.5 5.4 5.2
5.8 5.9 5.6 5.4 5.3 5.3 5.5 5.3 5.3 5.2 5.4 5.2 5.3 5.3 5.1 5.1 5.1 5.1 5.3 5.1 5.4 5.5 5.3 5.2 5.2 5.3 5.3 5.4 5.4 5.2 4.9 5.3 5.3 5.2 5.2 5.4 5.4 5.6 5.8 5.7 5.4 5.4 5.3 5.2
5.7 6.0 6.3 5.9 5.7 5.5 5.6 5.4 5.4 5.5 5.2 5.6 5.4 5.1 5.0 5.0 4.9 4.8 4.9 4.7 5.0 5.1 4.9 5.0 5.1 5.3 5.1 5.2 5.1 5.1 5.0 4.9 5.2 5.1 5.1 5.0 5.0 5.2 5.2 5.4 5.5 5.5 5.5 5.3
5.9 6.2 6.4 6.4 6.1 5.9 5.9 5.8 5.8 5.6 5.4 5.8 5.8 5.0 5.2 5.2 5.2 5.1 4.9 4.9 5.0 5.0 4.8 5.0 5.1 5.1 5.4 5.7 5.6 5.3 5.5 5.5 5.4 5.5 5.4 5.2 5.2 5.0 4.9 5.0 4.9 5.0 5.1 5.3
5.8 5.8 6.1 6.2 6.1 6.0 6.2 6.0 5.6 5.7 5.7 5.6 5.5 5.3 5.2 5.1 5.2 5.3 5.5 5.5 5.2 5.3 5.2 5.2 5.3 5.3 5.4 5.3 5.5 5.2 5.6 5.6 5.6 5.4 5.6 5.8 5.7 5.6 5.5 5.4 5.6 5.3 5.2 5.3
Wind_Speed
21 16 16 24 16 24 22 18 14 10 16 12 10 10 10 11 9 8 9 9 9 18 20 21 22 22 22 22 22 22 21 20 20 19 18 17 16 15 15 13 11 10 10 11
10 8 24 20 18 19 24 23 19 18 22 7 6 9 6 8 15 12 8 8 8 19 24 22 21 20 21 22 22 22 21 21 19 17 17 16 15 14 13 13 10 11 10 10
9 7 6 15 26 19 11 17 16 18 19 8 11 8 8 11 9 11 9 9 9 10 20 20 20 21 22 23 22 22 21 20 20 18 17 17 14 14 12 13 12 11 12 10
6 6 9 4 10 9 14 10 11 9 13 11 12 11 10 8 6 4 8 6 8 12 9 16 18 20 22 20 21 22 20 20 20 19 19 16 16 14 14 11 13 10 10 8
6 10 3 8 9 5 7 13 8 1 3 8 10 6 7 10 10 11 8 14 5 7 9 11 20 20 18 19 19 21 19 20 21 19 18 17 16 15 12 9 9 8 7 9
3 7 19 3 6 5 3 2 4 10 9 7 5 3 6 5 3 10 12 18 15 13 10 16 14 19 20 21 19 21 21 19 18 18 17 16 15 13 6 9 6 7 7 8
6 8 4 5 4 4 6 5 4 8 7 6 2 4 5 6 5 6 3 11 12 12 15 14 12 19 20 20 22 17 15 10 13 14 15 15 12 10 9 9 9 7 8 8
1 4 4 6 6 5 5 3 4 4 5 2 3 7 5 7 6 5 5 3 10 10 11 10 10 17 15 16 11 13 13 13 13 14 11 11 15 10 9 10 10 8 8 6
5 2 2 3 7 4 7 3 4 6 7 4 7 7 8 5 6 6 9 8 6 9 11 11 10 13 13 10 15 15 15 14 14 14 13 12 12 12 9 9 8 7 6 5
9 11 7 6 4 7 18 15 13 12 11 13 11 13 13 8 8 8 4 9 13 13 12 11 13 12 14 14 16 17 16 13 13 14 12 10 7 7 8 7 6 6 6 5
5 13 20 10 11 3 21 15 10 12 15 14 16 16 13 13 14 12 7 5 15 17 15 13 14 15 14 15 18 17 15 12 12 10 10 9 8 5 6 5 3 5 4 5
3 6 5 7 12 10 15 14 9 15 17 16 16 13 12 14 13 16 24 10 14 15 19 15 16 16 15 14 17 16 13 10 9 9 8 8 8 7 16 10 6 7 5 8
4 3 9 11 21 16 14 11 11 14 13 12 11 11 12 8 9 18 23 30 20 16 13 14 12 14 13 13 14 14 13 12 9 9 9 9 8 8 7 5 11 14 12 10
4 5 11 19 8 18 19 18 17 18 15 10 9 8 10 11 15 13 9 30 8 13 13 10 11 9 11 13 13 12 12 12 8 8 8 9 10 9 8 7 5 3 9 5
11 12 7 5 15 15 15 16 19 18 16 16 13 9 10 10 13 15 14 9 7 9 10 9 8 6 8 10 9 11 10 8 8 7 6 7 7 8 8 10 7 5 3 4
10 10 5 7 10 8 10 14 14 13 13 14 17 12 13 10 7 6 7 14 11 7 7 7 7 7 7 9 8 5 6 7 7 6 7 8 8 8 8 8 8 7 6 4
3 5 4 7 9 11 8 7 8 8 8 11 12 13 10 9 10 10 9 11 13 13 8 7 5 5 5 2 9 3 5 2 5 3 8 8 7 6 9 9 9 8 8 9
4 5 4 5 6 4 4 5 5 5 7 7 10 13 13 8 8 8 9 10 10 11 11 9 8 6 6 8 7 5 3 5 3 4 4 4 5 4 6 10 8 7 5 5
3 1 4 7 6 4 2 1 4 4 3 7 8 10 11 11 5 7 9 8 8 8 7 7 9 8 6 7 6 5 3 2 5 4 4 6 6 6 5 9 7 7 7 8
3 7 4 7 4 4 3 4 6 6 4 2 3 7 8 8 8 7 5 6 5 1 3 7 7 6 7 7 7 4 7 7 6 5 5 4 4 5 6 6 6 6 6 7
14 11 8 10 10 9 7 4 5 7 7 7 7 5 6 6 6 7 7 5 6 6 7 8 6 5 5 5 3 2 6 7 5 4 5 4 5 3 2 5 4 5 4 6
14 6 7 6 6 7 5 6 6 6 6 7 7 7 7 6 7 6 6 4 3 9 6 5 4 5 3 4 3 1 5 6 6 5 4 4 3 3 4 5 5 5 6 7
7 6 7 8 7 5 3 4 5 6 6 6 6 7 4 4 3 4 4 4 4 7 5 4 6 10 13 6 4 1 6 5 5 5 5 5 4 4 4 3 3 3 3 4
5 11 8 12 9 7 7 5 7 6 5 5 6 6 5 3 1 3 4 4 6 4 3 2 5 9 9 5 5 5 1 4 4 3 4 6 5 3 3 2 2 2 2 1
6 10 10 11 10 6 8 9 10 11 8 7 8 11 12 5 3 4 3 3 3 1 1 1 4 7 5 5 6 5 3 3 4 2 1 3 4 4 4 4 4 4 3 2
8 7 7 9 8 6 5 6 5 5 5 6 6 6 6 8 9 10 7 8 8 6 4 2 4 5 7 11 11 10 9 10 9 7 6 5 5 1 1 2 2 5 5 3
8 10 9 9 8 8 5 6 6 4 6 5 5 5 6 8 9 10 12 11 7 8 5 7 7 8 9 9 9 8 8 8 9 9 7 8 8 7 8 8 9 11 10 9
Wind_Direction
217 212 213 238 248 204 209 215 206 229 231 238 246 224 208 203 203 211 171 224 173 172 174 181 179 181 183 183 182 180 185 190 196 199 203 205 206 203 204 202 197 181 175 183
202 206 224 239 242 239 209 218 228 233 249 228 274 202 236 244 196 174 204 191 178 169 175 179 180 181 181 182 185 184 187 193 195 197 199 203 202 201 197 199 193 181 179 175
207 167 239 251 230 241 253 218 202 217 235 216 254 238 213 232 199 176 191 193 197 170 181 180 183 181 182 184 183 187 190 189 193 195 197 200 194 194 190 193 190 182 189 176
159 129 212 244 186 220 234 249 215 222 207 200 209 223 196 173 157 208 210 202 225 193 164 182 186 184 188 177 182 187 190 191 190 192 198 192 192 189 194 186 192 186 182 166
149 186 287 276 262 223 231 251 237 130 250 221 221 224 249 192 178 189 155 250 184 236 187 176 178 183 180 183 183 186 188 192 191 188 190 190 187 188 185 171 176 167 161 145
157 183 219 155 237 101 70 192 27 87 59 47 53 166 250 30 301 208 186 199 207 220 214 185 178 176 173 179 180 189 193 193 187 186 184 180 175 173 140 145 143 136 129 147
183 205 263 159 247 104 141 205 55 82 75 49 63 189 239 312 324 161 210 203 196 187 177 192 172 170 179 179 189 184 184 147 165 172 165 158 141 137 136 137 132 139 151 159
12 150 239 349 56 167 205 143 128 82 84 60 314 309 285 265 265 121 59 345 202 166 166 163 163 161 165 174 151 143 132 134 133 138 136 130 131 136 141 133 136 150 156 161
352 86 108 316 156 260 316 320 50 62 35 43 29 334 308 304 222 174 119 101 56 128 128 129 127 140 129 134 123 122 118 118 118 111 114 121 130 133 130 128 139 154 155 163
336 1 345 225 351 70 63 47 28 51 55 65 72 30 19 16 45 31 69 120 103 81 72 70 98 105 118 120 117 115 114 111 111 116 119 121 125 128 127 133 143 154 163 156
310 355 347 63 35 216 105 102 14 54 61 59 61 41 28 31 26 17 10 83 111 113 103 95 93 98 107 110 112 108 109 110 109 111 102 86 65 47 107 61 105 151 165 148
59 326 279 342 356 65 84 92 96 65 54 45 53 52 44 37 28 16 9 296 94 97 102 101 96 93 95 103 109 116 112 117 115 116 113 112 110 85 47 62 58 74 162 132
151 188 59 15 33 10 63 70 85 81 78 71 50 50 43 62 49 30 10 303 100 101 98 101 112 111 114 116 111 117 118 129 126 128 130 128 124 121 112 41 62 51 54 104
22 325 23 38 17 357 31 48 51 54 57 70 72 53 54 38 57 62 4 282 65 86 80 82 89 104 108 117 107 120 124 125 136 142 147 150 153 152 147 144 136 111 37 68
65 64 84 102 68 7 16 40 46 37 31 30 40 78 77 65 53 48 295 335 68 85 85 78 74 90 91 106 115 145 137 149 152 153 158 159 163 165 167 147 146 124 110 63
92 71 71 81 78 59 35 31 38 33 31 26 18 33 39 43 63 82 10 31 44 48 60 76 80 70 68 98 99 95 101 146 125 169 171 170 168 172 163 151 138 152 167 168
64 76 33 51 60 61 44 29 37 38 26 22 24 13 52 27 24 26 34 56 48 37 36 62 79 98 94 70 96 108 92 67 110 130 163 174 158 154 166 157 163 173 184 171
144 116 106 84 74 68 41 41 37 29 20 8 19 40 19 34 38 18 26 38 51 55 33 15 10 28 49 40 28 47 166 162 150 135 140 174 183 166 133 165 161 163 144 165
303 197 174 141 164 139 151 60 34 37 53 7 19 26 35 17 45 71 41 34 49 22 12 45 21 24 33 48 45 358 110 164 98 87 99 111 77 96 98 126 133 150 150 158
123 79 90 57 58 67 70 27 347 37 51 188 16 33 39 17 19 53 62 77 96 140 62 18 16 28 17 12 20 42 71 78 46 108 116 60 95 108 115 127 140 152 148 154
97 107 91 70 60 54 48 43 53 44 51 63 68 64 118 105 54 45 61 63 0 18 39 62 40 15 53 19 303 138 112 107 111 101 68 107 111 120 153 134 149 133 155 161
59 54 63 80 82 74 38 35 48 45 44 41 25 40 66 54 68 66 56 97 18 51 51 42 31 13 21 8 359 262 125 131 132 123 137 110 96 80 29 147 193 196 178 200
16 36 54 42 47 47 35 35 32 61 48 43 25 24 93 108 118 79 58 15 50 62 64 43 9 18 14 29 349 60 94 85 98 114 113 118 109 91 89 95 118 118 147 188
26 50 52 40 35 36 32 12 18 18 49 37 19 29 45 71 27 117 131 120 84 96 76 26 19 33 7 348 5 16 97 131 118 116 107 118 125 137 126 113 91 94 103 168
46 54 46 44 33 22 19 9 38 18 13 29 35 24 6 39 68 353 102 82 118 314 127 71 14 352 356 355 334 349 313 85 120 94 126 204 182 184 184 169 156 127 109 103
47 59 60 50 32 16 24 27 22 30 36 22 11 25 9 23 26 31 23 34 34 19 347 68 21 32 36 29 40 35 47 46 25 29 29 31 28 18 114 100 174 170 169 195
54 54 47 35 13 5 25 25 13 23 23 18 353 10 51 42 30 28 26 19 15 48 37 68 58 54 56 48 36 44 42 50 36 37 26 48 39 29 65 63 50 52 49 50